| time (UTC) | temp C | wind direction | speed KPH | gust KPH | rain 1hr cm | rain 24hr cm | rain mn cm | humidity % | barometer mb |
| 20260507075716 | 9 | 261 | 0.0 | 0.0 | 0.00 | 0.00 | 0.00 | 95 | 1005.7 |
| 20260507075135 | 9 | 268 | 0.0 | 0.0 | 0.00 | 0.00 | 0.00 | 95 | 1006.0 |
| 20260507074541 | 9 | 270 | 0.0 | 0.0 | 0.00 | 0.00 | 0.00 | 94 | 1006.0 |
| 20260507073952 | 9 | 264 | 0.0 | 0.0 | 0.00 | 0.00 | 0.00 | 94 | 1006.0 |
| 20260507073328 | 10 | 261 | 0.0 | 0.0 | 0.00 | 0.00 | 0.00 | 94 | 1006.0 |
| 20260507072748 | 9 | 257 | 0.0 | 0.0 | 0.00 | 0.00 | 0.00 | 94 | 1006.0 |
| 20260507072116 | 10 | 270 | 0.0 | 0.0 | 0.00 | 0.00 | 0.00 | 94 | 1006.0 |
| 20260507071537 | 10 | 260 | 0.0 | 0.0 | 0.00 | 0.00 | 0.00 | 93 | 1006.0 |
| 20260507070310 | 10 | 261 | 0.0 | 0.0 | 0.00 | 0.00 | 0.00 | 93 | 1005.7 |
| 20260507065753 | 10 | 264 | 0.0 | 0.0 | 0.00 | 0.00 | 0.00 | 92 | 1006.0 |
| 20260507064514 | 10 | 264 | 0.0 | 0.0 | 0.00 | 0.00 | 0.00 | 92 | 1006.0 |
| 20260507063913 | 10 | 262 | 0.0 | 0.0 | 0.00 | 0.00 | 0.00 | 92 | 1006.0 |
| 20260507063347 | 10 | 260 | 0.0 | 0.0 | 0.00 | 0.00 | 0.00 | 92 | 1006.0 |
| 20260507062716 | 10 | 263 | 0.0 | 0.0 | 0.00 | 0.00 | 0.00 | 92 | 1005.7 |
| 20260507062130 | 10 | 260 | 0.0 | 0.0 | 0.00 | 0.00 | 0.00 | 91 | 1005.7 |
| 20260507061517 | 10 | 260 | 0.0 | 0.0 | 0.00 | 0.00 | 0.00 | 91 | 1005.7 |
| 20260507060928 | 10 | 260 | 0.0 | 0.0 | 0.00 | 0.00 | 0.00 | 91 | 1006.0 |
| 20260507060317 | 10 | 264 | 0.0 | 0.0 | 0.00 | 0.00 | 0.00 | 91 | 1006.0 |
| 20260507055734 | 10 | 264 | 0.0 | 0.0 | 0.00 | 0.00 | 0.00 | 91 | 1006.0 |
| 20260507055110 | 10 | 257 | 0.0 | 0.0 | 0.00 | 0.00 | 0.00 | 90 | 1006.0 |
| 20260507053926 | 10 | 260 | 0.0 | 0.0 | 0.00 | 0.00 | 0.00 | 91 | 1006.0 |
| 20260507052712 | 10 | 256 | 0.0 | 0.0 | 0.00 | 0.00 | 0.00 | 91 | 1006.0 |
| 20260507052147 | 10 | 265 | 0.0 | 0.0 | 0.00 | 0.00 | 0.00 | 90 | 1006.4 |
| 20260507051524 | 10 | 258 | 0.0 | 0.0 | 0.00 | 0.00 | 0.00 | 90 | 1006.0 |
| 20260507050911 | 10 | 263 | 0.0 | 0.0 | 0.00 | 0.00 | 0.00 | 90 | 1006.4 |
| 20260507050342 | 10 | 256 | 0.0 | 0.0 | 0.00 | 0.00 | 0.00 | 90 | 1006.4 |
| 20260507045750 | 10 | 266 | 0.0 | 0.0 | 0.00 | 0.00 | 0.00 | 90 | 1006.4 |
| 20260507045142 | 11 | 260 | 0.0 | 0.0 | 0.00 | 0.00 | 0.00 | 90 | 1006.4 |
| 20260507044539 | 11 | 263 | 0.0 | 0.0 | 0.00 | 0.00 | 0.00 | 90 | 1006.4 |
| 20260507043954 | 11 | 260 | 0.0 | 0.0 | 0.00 | 0.00 | 0.00 | 90 | 1006.4 |
| 20260507041541 | 11 | 283 | 0.0 | 0.0 | 0.00 | 0.00 | 0.00 | 90 | 1006.4 |
| 20260507040932 | 11 | 303 | 0.0 | 0.0 | 0.00 | 0.00 | 0.00 | 90 | 1006.4 |
| 20260507040332 | 11 | 282 | 0.0 | 0.0 | 0.00 | 0.00 | 0.00 | 90 | 1006.0 |
| 20260507035713 | 11 | 291 | 0.0 | 0.0 | 0.00 | 0.00 | 1.40 | 90 | 1006.0 |
| 20260507035145 | 11 | 282 | 0.0 | 0.0 | 0.00 | 0.00 | 1.40 | 90 | 1006.0 |
| 20260507034518 | 11 | 275 | 0.0 | 0.0 | 0.00 | 0.00 | 1.40 | 89 | 1006.0 |
| 20260507033911 | 11 | 268 | 0.0 | 0.0 | 0.00 | 0.00 | 1.40 | 90 | 1006.0 |
| 20260507033343 | 11 | 269 | 0.0 | 0.0 | 0.00 | 0.00 | 1.40 | 91 | 1005.7 |
| 20260507032121 | 11 | 299 | 0.0 | 0.0 | 0.00 | 0.00 | 1.40 | 91 | 1006.0 |
| 20260507030950 | 11 | 321 | 0.0 | 0.0 | 0.00 | 0.00 | 1.40 | 95 | 1005.7 |
| 20260507030351 | 12 | 286 | 0.0 | 0.0 | 0.00 | 0.00 | 1.40 | 95 | 1006.0 |
| 20260507025726 | 12 | 270 | 0.0 | 0.0 | 0.00 | 0.00 | 1.40 | 96 | 1006.0 |
| 20260507024540 | 12 | 268 | 0.0 | 0.0 | 0.00 | 0.00 | 1.40 | 95 | 1005.7 |
| 20260507023911 | 12 | 275 | 0.0 | 0.0 | 0.00 | 0.00 | 1.40 | 95 | 1006.0 |
| 20260507023354 | 12 | 262 | 0.0 | 0.0 | 0.00 | 0.00 | 1.40 | 95 | 1006.0 |
| 20260507022710 | 12 | 273 | 0.0 | 0.0 | 0.00 | 0.00 | 1.40 | 95 | 1006.0 |
| 20260507022117 | 12 | 278 | 0.0 | 0.0 | 0.00 | 0.00 | 1.40 | 95 | 1005.7 |
| 20260507021541 | 12 | 282 | 0.0 | 0.0 | 0.00 | 0.00 | 1.40 | 95 | 1006.0 |
| 20260507020939 | 12 | 268 | 0.0 | 0.0 | 0.00 | 0.00 | 1.40 | 95 | 1006.0 |
| 20260507020318 | 13 | 291 | 0.0 | 0.0 | 0.00 | 0.00 | 1.40 | 95 | 1006.0 |
| 20260507015728 | 13 | 274 | 0.0 | 0.0 | 0.00 | 0.00 | 1.40 | 95 | 1005.4 |
| 20260507015145 | 13 | 305 | 0.0 | 0.0 | 0.00 | 0.00 | 1.40 | 94 | 1005.0 |
| 20260507014513 | 13 | 309 | 0.0 | 0.0 | 0.00 | 0.00 | 1.40 | 97 | 1005.0 |
| 20260507013930 | 13 | 298 | 0.0 | 1.6 | 0.00 | 0.00 | 1.40 | 97 | 1005.0 |
| 20260507013354 | 13 | 280 | 0.0 | 0.0 | 0.00 | 0.00 | 1.40 | 98 | 1005.0 |
| 20260507012144 | 13 | 272 | 1.6 | 3.2 | 0.00 | 0.00 | 1.40 | 98 | 1005.0 |
| 20260507011532 | 13 | 271 | 0.0 | 0.0 | 0.00 | 0.00 | 1.40 | 98 | 1004.7 |
| 20260507010953 | 13 | 286 | 0.0 | 0.0 | 0.00 | 0.00 | 1.40 | 98 | 1004.7 |
| 20260507010329 | 13 | 289 | 0.0 | 0.0 | 0.00 | 0.00 | 1.40 | 98 | 1004.7 |
| 20260507005135 | 13 | 285 | 0.0 | 0.0 | 0.00 | 0.00 | 1.40 | 97 | 1004.4 |
| 20260507004543 | 13 | 302 | 0.0 | 0.0 | 0.00 | 0.00 | 1.40 | 97 | 1004.7 |
| 20260507003344 | 13 | 250 | 0.0 | 0.0 | 0.00 | 0.00 | 1.40 | 96 | 1004.0 |
| 20260507002728 | 13 | 272 | 0.0 | 0.0 | 0.00 | 0.00 | 1.40 | 96 | 1004.4 |
| 20260507001548 | 13 | 341 | 0.0 | 0.0 | 0.00 | 0.00 | 1.40 | 96 | 1004.4 |
| 20260507000314 | 13 | 273 | 0.0 | 0.0 | 0.00 | 0.00 | 1.40 | 95 | 1003.3 |
| 20260506235729 | 13 | 273 | 0.0 | 0.0 | 0.00 | 0.00 | 1.40 | 95 | 1004.0 |
| 20260506235133 | 13 | 269 | 0.0 | 0.0 | 0.00 | 0.00 | 1.40 | 95 | 1004.0 |
| 20260506234523 | 13 | 270 | 0.0 | 0.0 | 0.00 | 0.00 | 1.40 | 94 | 1004.4 |
| 20260506233939 | 13 | 264 | 0.0 | 0.0 | 0.00 | 0.00 | 1.40 | 94 | 1004.4 |
| 20260506233351 | 14 | 292 | 0.0 | 0.0 | 0.00 | 0.00 | 1.40 | 95 | 1003.7 |
| 20260506232743 | 14 | 288 | 0.0 | 0.0 | 0.00 | 0.00 | 1.40 | 95 | 1004.0 |
| 20260506232149 | 14 | 268 | 0.0 | 0.0 | 0.00 | 0.00 | 1.40 | 95 | 1003.3 |
| 20260506231525 | 14 | 268 | 0.0 | 0.0 | 0.00 | 0.00 | 1.40 | 95 | 1003.7 |
| 20260506230932 | 14 | 273 | 0.0 | 0.0 | 0.00 | 0.00 | 1.40 | 94 | 1004.0 |
| 20260506230329 | 14 | 283 | 0.0 | 0.0 | 0.00 | 0.00 | 1.40 | 93 | 1004.4 |
| 20260506225711 | 14 | 289 | 0.0 | 0.0 | 0.00 | 0.00 | 1.40 | 92 | 1004.4 |
| 20260506225110 | 15 | 269 | 0.0 | 0.0 | 0.00 | 0.00 | 1.40 | 92 | 1004.4 |
| 20260506224517 | 15 | 292 | 0.0 | 0.0 | 0.00 | 0.00 | 1.40 | 92 | 1004.4 |
| 20260506223932 | 15 | 303 | 0.0 | 0.0 | 0.00 | 0.00 | 1.40 | 90 | 1004.4 |
| 20260506223327 | 15 | 267 | 0.0 | 0.0 | 0.00 | 0.00 | 1.40 | 89 | 1004.4 |
| 20260506222722 | 15 | 316 | 0.0 | 0.0 | 0.00 | 0.00 | 1.40 | 89 | 1004.0 |
| 20260506222145 | 15 | 286 | 0.0 | 0.0 | 0.00 | 0.00 | 1.40 | 88 | 1004.0 |
| 20260506221515 | 15 | 276 | 0.0 | 0.0 | 0.00 | 0.00 | 1.40 | 85 | 1004.0 |
| 20260506220918 | 15 | 304 | 1.6 | 3.2 | 0.00 | 0.00 | 1.40 | 83 | 1004.0 |
| 20260506220343 | 15 | 263 | 3.2 | 3.2 | 0.00 | 0.00 | 1.40 | 83 | 1004.0 |
| 20260506215738 | 15 | 317 | 0.0 | 1.6 | 0.00 | 0.00 | 1.40 | 87 | 1003.7 |
| 20260506215142 | 15 | 268 | 3.2 | 3.2 | 0.00 | 0.00 | 1.40 | 84 | 1004.0 |
| 20260506214549 | 15 | 281 | 3.2 | 3.2 | 0.00 | 0.00 | 1.40 | 84 | 1004.0 |
| 20260506213317 | 15 | 15 | 1.6 | 1.6 | 0.00 | 0.00 | 1.40 | 90 | 1003.3 |
| 20260506212713 | 15 | 309 | 0.0 | 0.0 | 0.00 | 0.00 | 1.40 | 90 | 1003.3 |
| 20260506212127 | 15 | 294 | 0.0 | 0.0 | 0.00 | 0.00 | 1.40 | 89 | 1003.7 |
| 20260506210930 | 15 | 296 | 1.6 | 1.6 | 0.00 | 0.00 | 1.40 | 87 | 1003.7 |
| 20260506210347 | 15 | 341 | 0.0 | 1.6 | 0.00 | 0.00 | 1.40 | 88 | 1003.7 |
| 20260506204531 | 16 | 284 | 1.6 | 3.2 | 0.00 | 0.00 | 1.40 | 83 | 1003.3 |
| 20260506203311 | 15 | 278 | 1.6 | 1.6 | 0.00 | 0.00 | 1.40 | 82 | 1003.7 |
| 20260506202713 | 15 | 270 | 3.2 | 4.8 | 0.00 | 0.00 | 1.40 | 83 | 1003.7 |
| 20260506201533 | 15 | 283 | 1.6 | 1.6 | 0.00 | 0.00 | 1.40 | 84 | 1004.0 |
| 20260506200314 | 15 | 223 | 0.0 | 1.6 | 0.00 | 0.00 | 1.40 | 85 | 1003.7 |
| 20260506195752 | 15 | 275 | 1.6 | 1.6 | 0.00 | 0.00 | 1.40 | 82 | 1003.7 |
| 20260506194536 | 15 | 265 | 3.2 | 3.2 | 0.00 | 0.00 | 1.40 | 83 | 1003.3 |
| 20260506193953 | 15 | 208 | 3.2 | 3.2 | 0.00 | 0.00 | 1.40 | 84 | 1003.3 |
| 20260506193353 | 15 | 292 | 1.6 | 1.6 | 0.00 | 0.00 | 1.40 | 88 | 1003.3 |
| 20260506192743 | 15 | 280 | 1.6 | 1.6 | 0.00 | 0.00 | 1.40 | 86 | 1003.3 |
| 20260506192132 | 15 | 233 | 1.6 | 3.2 | 0.00 | 0.00 | 1.40 | 86 | 1003.3 |
| 20260506191543 | 15 | 260 | 1.6 | 3.2 | 0.00 | 0.00 | 1.40 | 89 | 1003.3 |
| 20260506190913 | 14 | 254 | 3.2 | 3.2 | 0.00 | 0.00 | 1.40 | 87 | 1003.7 |
| 20260506190341 | 14 | 264 | 0.0 | 1.6 | 0.00 | 0.00 | 1.40 | 89 | 1003.7 |
| 20260506185719 | 14 | 215 | 3.2 | 4.8 | 0.00 | 0.00 | 1.40 | 88 | 1003.3 |
| 20260506184536 | 14 | 258 | 0.0 | 1.6 | 0.00 | 0.00 | 1.40 | 90 | 1003.3 |
| 20260506183920 | 13 | 186 | 3.2 | 4.8 | 0.00 | 0.00 | 1.40 | 90 | 1003.3 |
| 20260506183330 | 13 | 250 | 3.2 | 3.2 | 0.00 | 0.00 | 1.40 | 90 | 1003.3 |
| 20260506182741 | 13 | 244 | 3.2 | 4.8 | 0.00 | 0.00 | 1.40 | 91 | 1003.3 |
| 20260506181541 | 13 | 280 | 0.0 | 0.0 | 0.00 | 0.00 | 1.40 | 92 | 1003.3 |
| 20260506180936 | 13 | 219 | 1.6 | 3.2 | 0.00 | 0.00 | 1.40 | 92 | 1003.3 |
| 20260506180354 | 13 | 208 | 1.6 | 1.6 | 0.00 | 0.00 | 1.40 | 92 | 1003.3 |
| 20260506175748 | 13 | 265 | 1.6 | 3.2 | 0.00 | 0.00 | 1.40 | 93 | 1003.3 |
| 20260506175127 | 13 | 254 | 3.2 | 4.8 | 0.00 | 0.00 | 1.40 | 95 | 1003.7 |
| 20260506174531 | 12 | 244 | 4.8 | 4.8 | 0.00 | 0.00 | 1.40 | 98 | 1003.7 |
| 20260506173943 | 12 | 259 | 1.6 | 1.6 | 0.00 | 0.00 | 1.40 | 98 | 1003.7 |
| 20260506173318 | 12 | 233 | 3.2 | 4.8 | 0.00 | 0.00 | 1.40 | 99 | 1003.7 |
| 20260506172712 | 12 | 121 | 1.6 | 1.6 | 0.00 | 0.00 | 1.40 | 99 | 1003.7 |
| 20260506172141 | 12 | 182 | 6.4 | 9.7 | 0.00 | 0.00 | 1.40 | 99 | 1003.7 |
| 20260506170953 | 12 | 222 | 3.2 | 3.2 | 0.00 | 0.00 | 1.40 | 99 | 1003.7 |
| 20260506170310 | 11 | 209 | 8.0 | 12.9 | 0.00 | 0.00 | 1.40 | 99 | 1003.7 |
| 20260506163946 | 12 | 243 | 3.2 | 3.2 | 0.00 | 0.00 | 1.40 | 99 | 1003.7 |
| 20260506163334 | 12 | 262 | 1.6 | 1.6 | 0.00 | 0.00 | 1.40 | 99 | 1003.3 |
| 20260506162749 | 12 | 188 | 3.2 | 3.2 | 0.00 | 0.00 | 1.40 | 99 | 1003.3 |
| 20260506162115 | 12 | 285 | 3.2 | 3.2 | 0.00 | 0.00 | 1.40 | 99 | 1003.3 |
| 20260506161546 | 12 | 253 | 4.8 | 6.4 | 0.00 | 0.00 | 1.40 | 99 | 1003.3 |
| 20260506160934 | 12 | 234 | 4.8 | 4.8 | 0.00 | 0.00 | 1.40 | 99 | 1003.3 |
| 20260506160351 | 12 | 223 | 6.4 | 9.7 | 0.00 | 0.00 | 1.40 | 99 | 1003.7 |
| 20260506155712 | 12 | 219 | 4.8 | 9.7 | 0.00 | 0.00 | 1.40 | 99 | 1003.3 |
| 20260506155128 | 12 | 220 | 6.4 | 11.3 | 0.00 | 0.00 | 1.40 | 99 | 1003.3 |
| 20260506154542 | 12 | 216 | 3.2 | 4.8 | 0.00 | 0.00 | 1.40 | 99 | 1003.0 |
| 20260506153930 | 12 | 240 | 3.2 | 3.2 | 0.00 | 0.00 | 1.40 | 99 | 1003.3 |
| 20260506153334 | 12 | 234 | 1.6 | 3.2 | 0.00 | 0.00 | 1.40 | 99 | 1003.0 |
| 20260506152733 | 12 | 260 | 4.8 | 4.8 | 0.00 | 0.00 | 1.40 | 99 | 1003.0 |
| 20260506151533 | 12 | 241 | 3.2 | 3.2 | 0.00 | 0.00 | 1.40 | 99 | 1002.7 |
| 20260506150933 | 12 | 212 | 1.6 | 1.6 | 0.00 | 0.00 | 1.40 | 99 | 1002.7 |
| 20260506150311 | 12 | 219 | 3.2 | 3.2 | 0.00 | 0.00 | 1.40 | 99 | 1002.3 |
| 20260506145750 | 12 | 233 | 1.6 | 1.6 | 0.00 | 0.00 | 1.40 | 99 | 1002.3 |
| 20260506145133 | 12 | 219 | 4.8 | 4.8 | 0.00 | 0.00 | 1.40 | 99 | 1002.3 |
| 20260506144538 | 12 | 224 | 3.2 | 4.8 | 0.00 | 0.00 | 1.40 | 99 | 1002.3 |
| 20260506143929 | 12 | 271 | 6.4 | 9.7 | 0.00 | 0.00 | 1.40 | 99 | 1002.3 |
| 20260506143317 | 12 | 236 | 6.4 | 9.7 | 0.00 | 0.00 | 1.40 | 99 | 1002.0 |
| 20260506142716 | 13 | 310 | 6.4 | 6.4 | 0.00 | 0.00 | 1.40 | 99 | 1002.3 |
| 20260506142117 | 13 | 263 | 6.4 | 9.7 | 0.00 | 0.00 | 1.40 | 99 | 1001.6 |
| 20260506141523 | 13 | 224 | 8.0 | 14.5 | 0.00 | 0.00 | 1.40 | 99 | 1001.6 |
| 20260506140935 | 13 | 225 | 6.4 | 6.4 | 0.00 | 0.00 | 1.40 | 99 | 1001.6 |
| 20260506140343 | 15 | 237 | 9.7 | 12.9 | 0.00 | 0.00 | 1.40 | 99 | 1001.6 |
| 20260506135734 | 15 | 297 | 8.0 | 9.7 | 0.00 | 0.00 | 1.40 | 99 | 1001.0 |
| 20260506135139 | 15 | 329 | 4.8 | 4.8 | 0.00 | 0.00 | 1.40 | 99 | 1001.0 |
| 20260506134512 | 15 | 328 | 1.6 | 1.6 | 0.00 | 0.00 | 1.40 | 99 | 1000.6 |
| 20260506133920 | 15 | 353 | 3.2 | 3.2 | 0.00 | 0.00 | 1.40 | 99 | 1001.0 |
| 20260506133350 | 15 | 50 | 1.6 | 3.2 | 0.00 | 0.00 | 1.37 | 99 | 1000.6 |
| 20260506132744 | 15 | 2 | 1.6 | 3.2 | 0.00 | 0.00 | 1.37 | 99 | 1000.3 |
| 20260506132120 | 15 | 342 | 1.6 | 1.6 | 0.00 | 0.00 | 1.37 | 99 | 1000.3 |
| 20260506131514 | 15 | 356 | 1.6 | 3.2 | 0.00 | 0.00 | 1.37 | 99 | 1000.3 |
| 20260506130920 | 15 | 6 | 1.6 | 3.2 | 0.00 | 0.00 | 1.37 | 99 | 1000.3 |
| 20260506125727 | 15 | 343 | 1.6 | 1.6 | 0.00 | 0.00 | 1.37 | 99 | 1000.0 |
| 20260506125146 | 15 | 343 | 1.6 | 1.6 | 0.00 | 0.00 | 1.37 | 99 | 1000.0 |
| 20260506124511 | 15 | 305 | 0.0 | 0.0 | 0.00 | 0.00 | 1.37 | 99 | 1000.0 |
| 20260506123932 | 15 | 288 | 0.0 | 0.0 | 0.00 | 0.00 | 1.37 | 99 | 1000.0 |
| 20260506123320 | 15 | 282 | 0.0 | 0.0 | 0.00 | 0.00 | 1.37 | 99 | 1000.0 |
| 20260506122715 | 15 | 347 | 0.0 | 0.0 | 0.00 | 0.00 | 1.37 | 99 | 1000.0 |
| 20260506122149 | 15 | 312 | 0.0 | 0.0 | 0.00 | 0.00 | 1.37 | 99 | 1000.0 |
| 20260506121518 | 15 | 354 | 3.2 | 3.2 | 0.00 | 0.00 | 1.37 | 99 | 1000.0 |
| 20260506120310 | 15 | 263 | 0.0 | 0.0 | 0.00 | 0.00 | 1.37 | 99 | 999.6 |
| 20260506115715 | 15 | 320 | 0.0 | 0.0 | 0.00 | 0.00 | 1.37 | 99 | 999.6 |
| 20260506115122 | 15 | 359 | 1.6 | 1.6 | 0.00 | 0.00 | 1.37 | 99 | 999.6 |
| 20260506114533 | 15 | 278 | 0.0 | 0.0 | 0.00 | 0.00 | 1.37 | 99 | 999.3 |
| 20260506113948 | 15 | 272 | 0.0 | 0.0 | 0.00 | 0.00 | 1.35 | 99 | 999.3 |
| 20260506112733 | 15 | 285 | 0.0 | 0.0 | 0.00 | 0.00 | 1.32 | 99 | 999.3 |
| 20260506111515 | 14 | 296 | 0.0 | 0.0 | 0.00 | 0.00 | 1.32 | 99 | 999.3 |
| 20260506110913 | 14 | 286 | 0.0 | 0.0 | 0.00 | 0.00 | 1.32 | 99 | 999.6 |
| 20260506105711 | 14 | 273 | 0.0 | 0.0 | 0.00 | 0.00 | 1.27 | 99 | 999.6 |
| 20260506105146 | 14 | 286 | 0.0 | 0.0 | 0.00 | 0.00 | 1.24 | 99 | 999.3 |
| 20260506103921 | 14 | 288 | 0.0 | 0.0 | 0.00 | 0.00 | 1.24 | 99 | 998.9 |
| 20260506103351 | 14 | 336 | 0.0 | 0.0 | 0.00 | 0.00 | 1.24 | 99 | 999.3 |
| 20260506102708 | 14 | 335 | 0.0 | 0.0 | 0.00 | 0.00 | 1.22 | 99 | 998.9 |
| 20260506102109 | 14 | 274 | 0.0 | 0.0 | 0.00 | 0.00 | 1.22 | 99 | 999.3 |
| 20260506100950 | 14 | 272 | 0.0 | 0.0 | 0.00 | 0.00 | 1.19 | 99 | 998.9 |
| 20260506095711 | 14 | 292 | 0.0 | 0.0 | 0.00 | 0.00 | 1.19 | 99 | 998.9 |
| 20260506095149 | 14 | 292 | 0.0 | 0.0 | 0.00 | 0.00 | 1.14 | 99 | 998.9 |
| 20260506094538 | 14 | 315 | 0.0 | 0.0 | 0.00 | 0.00 | 1.04 | 99 | 998.9 |
| 20260506093321 | 14 | 298 | 0.0 | 0.0 | 0.00 | 0.00 | 0.94 | 99 | 998.6 |
| 20260506092747 | 14 | 271 | 0.0 | 0.0 | 0.00 | 0.00 | 0.91 | 99 | 998.6 |
| 20260506092113 | 14 | 261 | 0.0 | 0.0 | 0.00 | 0.00 | 0.91 | 99 | 998.3 |
| 20260506090323 | 14 | 283 | 0.0 | 0.0 | 0.00 | 0.00 | 0.84 | 99 | 998.6 |
| 20260506085736 | 14 | 296 | 0.0 | 0.0 | 0.00 | 0.00 | 0.71 | 99 | 998.6 |
| 20260506085114 | 14 | 291 | 0.0 | 0.0 | 0.00 | 0.00 | 0.69 | 99 | 998.6 |
| 20260506083926 | 14 | 12 | 1.6 | 1.6 | 0.00 | 0.00 | 0.53 | 99 | 998.6 |
| 20260506083337 | 14 | 257 | 0.0 | 0.0 | 0.00 | 0.00 | 0.51 | 99 | 998.6 |
| 20260506082737 | 14 | 281 | 0.0 | 0.0 | 0.00 | 0.00 | 0.48 | 99 | 998.6 |
| 20260506082142 | 14 | 284 | 0.0 | 0.0 | 0.00 | 0.00 | 0.48 | 99 | 998.9 |
| 20260506081514 | 14 | 292 | 0.0 | 0.0 | 0.00 | 0.00 | 0.46 | 99 | 998.9 |
| 20260506080930 | 14 | 292 | 0.0 | 0.0 | 0.00 | 0.00 | 0.46 | 99 | 998.9 |
| 20260506080318 | 14 | 7 | 3.2 | 3.2 | 0.00 | 0.00 | 0.46 | 99 | 998.6 |